Location: Hilton Head Island
(32.2163°N, 80.7526°W)
Time: 04:07:08
(UTC-04:00)

Transit 2A Rocket - Pass Details

Date: 10 February 2026
Orbit: 583 x 900 km, 66.7° (Epoch: 12 March)

Event Time Altitude Azimuth Distance (km) Brightness Sun altitude
Rises 05:11:46 0° 307° (NW) 3,248 - -25.5°
Drops below altitude 10° 05:17:19 10° 260° (W) 2,200 - -24.3°
Maximum altitude 05:17:20 10° 259° (W) 2,200 - -24.3°
Sets 05:22:36 0° 210° (SSW) 2,992 - -23.2°
